Helicity
45 37 34 26 30 32 36 29 29 31 24 12 1 2 -1 -0 14 22 14 35 23 21 1 26 12 19 8 14 -7 -2 83 86 85 48 16 -0 35 41 12 43 160 123 187 149 271
53 48 41 33 24 28 24 20 22 27 21 9 -1 4 -2 -2 8 18 53 47 32 11 2 4 27 11 4 14 15 46 52 27 36 6 -2 -6 38 44 85 172 191 234 292 328 399
48 49 39 35 26 25 14 14 22 27 16 10 6 8 11 1 18 61 62 49 38 12 13 11 29 25 18 26 12 26 25 22 25 6 -5 17 88 59 123 187 149 105 188 302 440
52 50 46 41 34 23 6 12 22 22 11 14 12 15 25 9 40 65 52 30 15 8 22 13 -2 -1 -0 1 7 21 24 12 7 12 19 42 56 158 244 141 137 169 195 309 343
56 47 41 40 31 22 14 9 13 13 16 18 12 11 19 30 52 63 37 25 -5 6 12 -9 -0 3 11 4 -9 38 13 10 5 24 51 176 188 247 280 200 193 253 308 299 349
55 46 45 42 33 24 11 13 13 16 11 6 10 8 2 72 67 57 50 8 -4 -13 -20 2 5 8 8 16 35 16 46 16 -1 35 53 117 121 119 192 162 243 237 240 252 297
50 44 48 39 20 24 17 19 15 7 -3 5 -0 11 69 39 38 55 34 37 25 10 6 11 15 26 21 16 18 56 65 56 46 45 72 142 152 228 211 238 226 176 177 243 268
49 45 41 31 -1 -5 7 11 -0 -2 2 6 5 5 37 27 49 6 29 16 29 35 34 24 34 26 28 21 -2 45 52 25 20 40 86 114 168 227 195 260 213 224 230 239 268
58 50 43 27 -0 -1 2 7 4 4 17 16 13 8 8 40 50 64 33 50 27 19 17 25 7 4 -29 2 -11 -13 19 27 45 72 54 100 269 259 256 332 306 238 199 214 232
67 53 37 23 -4 26 36 53 61 35 25 57 46 8 17 67 90 115 73 17 32 50 2 -1 -4 -0 6 8 26 44 48 60 92 57 110 173 272 331 317 309 238 204 201 204 243
74 62 41 15 20 30 22 23 -10 49 21 14 24 27 42 73 47 119 62 26 19 -2 13 16 17 32 48 39 50 57 56 57 73 88 64 169 397 394 285 260 221 233 302 284 257
79 69 49 36 35 7 -16 -26 -0 -5 -6 -13 -6 11 38 61 18 122 56 16 15 21 13 15 -2 53 39 16 12 24 52 47 44 29 12 280 320 293 308 320 360 337 304 234 213
91 81 53 45 31 -16 -34 -2 38 23 8 31 26 58 45 16 33 98 31 20 17 23 26 5 38 11 18 -2 5 36 74 76 91 26 132 355 327 359 373 483 487 412 291 267 170
93 92 65 44 -2 2 -9 -12 -9 11 12 -4 9 35 63 17 4 28 31 23 -10 10 20 27 22 40 39 33 51 50 98 102 131 107 127 161 267 401 489 564 511 399 308 218 161
90 96 80 5 39 13 -6 -20 -13 -8 20 13 11 47 -7 21 43 44 21 5 24 3 26 27 31 41 26 13 28 60 96 89 117 117 147 163 296 365 454 538 498 385 256 184 85
83 91 37 25 -0 -0 -25 -23 -12 8 13 3 7 1 3 1 -6 7 10 8 27 14 25 26 33 34 48 50 56 6 90 94 93 142 174 202 265 470 591 558 472 301 190 121 11
77 109 28 7 -0 -11 -13 -4 13 23 -8 -4 20 8 9 -0 -9 -7 1 35 26 19 19 19 18 9 27 26 35 40 28 -26 86 153 138 257 337 628 602 474 356 206 68 -15 -115
78 78 50 8 -29 -21 -7 14 30 7 9 21 26 16 11 -5 4 -2 18 4 29 8 36 41 21 36 22 44 56 20 12 49 117 170 235 205 387 447 403 228 116 -4 -79 -97 -130
72 62 50 50 -24 -28 5 42 23 5 11 19 18 27 5 -2 19 25 6 7 26 5 38 37 38 47 61 35 63 48 85 57 103 195 319 378 491 433 381 323 133 46 -51 -180 -189
45 51 58 20 -16 -14 26 44 19 2 10 25 26 26 25 7 18 19 14 20 17 14 32 53 35 75 69 82 83 114 81 117 152 231 348 437 486 559 507 341 141 8 -132 -224 -79
58 56 69 5 -10 47 61 41 29 13 18 36 33 31 37 28 22 31 25 34 34 21 49 67 84 48 111 110 76 105 155 199 205 279 412 453 512 588 443 153 -1 -117 -140 -13 -60
65 65 68 10 76 74 62 40 32 34 26 47 54 41 46 36 43 56 62 40 36 45 52 72 94 78 78 99 124 186 215 206 283 299 363 471 607 398 145 -25 -88 -37 1 -23 55
86 89 78 49 91 100 68 53 44 42 50 60 56 46 32 42 55 63 56 48 60 64 68 66 99 79 96 123 175 243 226 203 238 333 347 471 519 223 60 25 51 28 20 26 63
112 108 105 95 91 94 83 67 70 55 64 78 64 43 41 48 41 75 67 57 79 67 64 82 99 132 141 174 211 209 188 216 299 355 365 354 324 179 137 136 73 53 75 62 55
136 96 88 98 114 101 80 74 79 66 66 72 62 48 45 58 66 67 77 73 73 71 91 104 108 125 106 160 171 240 253 296 367 342 334 295 273 177 133 122 136 164 107 68 56
107 95 135 153 126 138 82 74 73 73 59 67 73 48 44 70 62 68 88 76 82 93 91 105 137 166 148 182 228 360 332 370 326 287 255 212 238 136 130 145 95 153 110 89 68
106 122 122 162 132 100 72 69 60 92 67 82 70 61 72 67 68 82 89 113 123 126 116 141 151 176 144 191 257 375 359 323 208 222 235 308 180 143 122 117 119 168 141 98 93
Wind_Speed
14 14 16 19 19 23 30 36 43 45 45 46 47 48 48 46 42 40 42 33 31 27 28 30 32 14 31 31 31 30 29 32 38 36 39 46 47 47 38 40 45 41 43 45 52
13 15 18 20 18 23 29 36 42 45 46 47 48 47 47 44 44 51 32 29 30 32 37 37 34 32 34 32 31 30 29 33 37 36 41 46 46 46 41 40 42 42 47 50 53
15 16 17 18 17 22 30 37 41 45 46 47 47 44 39 35 39 33 32 32 33 36 36 34 32 36 36 35 33 32 32 33 40 35 41 44 46 44 31 42 42 41 46 51 54
16 17 18 18 20 23 32 38 42 45 46 46 44 40 36 34 38 29 33 38 40 38 35 35 38 38 37 36 32 31 26 29 34 41 40 39 40 46 41 35 39 42 46 51 55
15 16 17 19 20 25 36 41 44 46 46 44 41 38 37 50 43 31 33 33 35 35 34 36 38 37 34 33 35 27 33 33 32 37 40 39 38 38 42 40 42 46 53 55 55
13 15 15 15 16 22 45 46 47 48 47 43 41 40 43 54 33 31 33 38 37 37 38 36 33 29 32 34 36 34 31 35 34 36 35 40 37 39 40 39 47 52 54 57 59
13 15 15 13 13 9 50 51 51 50 49 46 46 48 57 51 37 29 32 33 35 37 35 35 34 35 32 33 33 29 38 43 39 31 29 38 48 41 37 41 48 52 53 56 59
13 13 17 22 38 53 53 53 53 51 48 45 46 50 55 41 35 39 25 33 27 29 32 31 35 36 37 29 36 36 43 41 40 36 34 32 38 36 33 42 47 50 53 55 59
13 11 17 31 46 53 54 53 52 49 45 43 42 46 47 32 39 20 23 31 28 32 32 32 38 45 39 43 41 46 39 40 32 43 27 32 31 32 38 43 48 52 54 56 59
12 12 16 31 47 49 50 51 51 45 40 40 41 44 41 34 31 10 25 37 34 22 38 39 44 48 51 56 45 33 31 24 25 34 43 42 38 41 44 48 49 53 56 58 63
13 15 20 27 40 40 41 41 46 49 48 59 50 54 44 32 38 4 26 43 42 45 42 41 52 40 32 35 31 24 23 21 28 34 38 36 41 42 44 49 51 56 60 62 66
16 17 24 31 33 38 38 44 48 48 60 59 59 50 42 40 43 35 8 42 46 45 39 42 50 23 34 34 35 28 28 28 17 26 45 38 41 41 45 50 53 56 63 68 73
18 18 26 33 33 30 45 52 42 42 51 50 50 45 31 40 44 5 17 37 45 51 53 52 36 35 44 45 47 36 37 30 25 33 38 32 37 36 44 51 57 62 64 73 82
21 22 24 33 38 42 46 43 35 35 44 49 40 35 2 35 42 40 18 36 41 44 39 43 37 44 46 45 46 37 29 18 29 39 39 29 45 35 40 54 63 68 73 81 88
24 23 24 35 43 42 41 38 34 35 39 32 39 19 52 50 31 10 24 41 47 44 41 39 44 48 49 44 46 38 18 35 39 32 38 42 42 38 46 63 69 72 75 83 91
27 25 32 27 37 39 39 36 36 37 40 37 39 43 46 49 46 41 52 38 44 45 51 44 38 43 43 41 49 43 55 46 42 42 49 46 50 49 50 56 63 69 76 86 94
29 22 27 36 38 38 37 35 39 45 33 37 38 39 45 45 47 48 50 58 53 41 42 38 42 40 51 47 48 68 64 53 48 58 56 51 66 52 46 51 63 70 78 89 96
31 26 22 20 36 37 36 38 43 38 38 34 34 38 43 49 44 48 40 50 57 51 43 44 38 48 52 48 46 55 62 58 62 69 65 62 59 52 44 51 62 67 80 92 103
32 24 24 24 27 33 33 43 37 34 34 35 35 38 41 42 38 41 46 44 49 57 47 47 36 40 47 50 50 54 61 48 56 56 68 61 54 43 51 62 73 82 93 97 102
19 18 26 26 28 32 35 37 35 35 35 34 35 34 39 44 39 39 42 42 41 51 46 43 39 36 42 44 48 50 49 62 65 77 87 69 68 68 75 80 83 94 98 101 102
17 18 26 27 30 35 34 34 34 35 33 36 33 33 37 40 39 38 39 38 43 44 48 45 39 41 43 49 48 51 56 59 56 58 74 87 80 60 72 81 90 94 97 100 98
15 16 26 25 28 33 33 32 32 33 38 36 35 33 34 37 37 35 35 35 43 43 41 43 40 46 45 42 45 47 56 62 73 72 62 73 82 53 68 75 83 89 91 93 89
14 17 24 23 23 27 29 31 32 32 36 34 32 33 31 35 35 35 34 36 44 45 42 43 44 51 50 44 47 54 58 61 57 58 74 83 81 58 76 83 88 92 91 92 91
14 14 23 25 25 24 26 28 31 33 34 35 31 31 31 34 37 32 34 32 40 41 40 41 39 40 46 48 52 59 64 59 60 73 76 78 87 89 95 93 93 93 90 89 88
22 19 18 17 20 22 26 26 28 33 32 33 32 29 29 32 34 34 34 35 37 40 42 44 43 42 39 47 51 56 63 61 66 67 76 82 88 81 86 88 88 82 80 81 92
17 14 20 17 18 21 26 25 26 30 30 30 28 28 30 32 32 30 33 35 37 39 43 42 46 50 52 48 60 60 54 61 62 66 71 81 84 70 78 79 85 79 79 87 94
20 17 14 19 17 20 23 23 23 26 32 30 26 30 33 32 34 36 37 37 37 40 43 44 49 57 60 60 58 63 62 65 64 68 73 87 79 80 90 86 82 75 79 88 87
Wind_Direction
234 212 203 188 179 162 143 130 118 111 111 113 114 115 114 112 111 101 84 107 118 141 139 137 127 240 346 350 9 23 351 343 343 348 344 341 335 336 353 356 1 3 1 353 351
234 221 206 192 192 168 148 132 119 111 110 112 114 115 112 108 92 61 100 117 121 120 107 98 112 117 89 19 5 358 357 349 356 0 350 343 342 339 347 355 355 357 356 354 356
243 236 225 213 224 191 155 131 116 109 109 111 113 111 110 112 92 93 98 108 116 110 104 109 113 103 103 90 63 31 14 9 349 9 358 352 353 348 9 354 360 3 358 357 359
254 250 239 239 231 196 158 131 114 108 111 111 109 110 104 107 72 98 93 85 81 87 101 93 75 65 71 71 65 57 65 37 19 2 8 9 19 9 17 20 16 11 7 3 359
247 242 235 245 225 189 145 124 109 108 111 113 106 106 103 66 75 96 91 86 74 72 76 54 35 42 49 46 35 60 37 29 18 8 11 18 16 25 21 24 17 10 5 3 1
219 212 226 233 229 191 118 104 103 107 108 109 101 98 81 46 93 96 92 73 71 62 49 50 54 61 35 29 27 29 31 14 14 12 22 23 21 13 19 27 14 10 9 8 5
197 181 187 210 215 319 77 93 102 104 104 106 97 88 48 62 88 102 96 92 88 77 72 65 57 41 47 43 43 57 35 25 26 52 45 32 8 21 36 25 14 12 14 11 8
195 194 173 165 142 92 82 88 99 102 103 100 98 83 66 91 92 82 106 103 119 115 101 96 80 77 64 77 52 47 36 27 35 40 35 33 16 31 36 19 13 12 10 7 4
203 201 179 148 127 110 93 92 101 102 104 97 96 86 78 105 87 111 112 109 126 117 115 113 93 70 61 56 57 44 43 42 58 29 50 38 39 34 26 17 10 9 8 6 4
226 214 188 154 127 125 124 120 113 110 116 112 97 86 92 101 101 104 121 101 109 138 104 100 85 70 57 36 54 75 75 78 64 47 37 34 30 23 20 17 15 13 11 9 5
231 209 187 172 143 141 140 139 118 104 39 74 86 81 89 110 96 94 119 89 90 84 97 93 67 80 84 81 87 89 80 72 61 49 32 31 27 22 24 20 14 9 6 5 1
232 210 194 173 153 126 127 115 106 108 68 65 66 82 92 90 82 339 109 86 76 83 102 88 61 97 90 82 68 69 58 56 63 43 22 35 26 29 22 18 16 9 2 358 353
239 220 199 180 150 125 84 96 135 115 74 80 74 84 101 85 79 7 304 94 75 64 61 60 76 74 57 45 40 51 48 40 30 21 26 40 19 18 19 15 13 8 4 358 353
240 223 210 180 128 106 94 114 129 120 63 55 74 81 203 91 74 66 297 90 74 65 71 63 71 57 43 40 34 42 44 18 10 13 15 18 357 7 9 4 1 359 356 354 349
239 236 222 163 111 115 106 110 104 85 44 78 69 128 38 54 89 329 308 80 49 53 57 57 50 40 39 39 32 31 296 12 17 22 11 7 357 356 354 349 351 352 351 350 348
235 243 180 192 128 111 117 99 73 62 42 59 62 51 49 48 66 70 5 2 48 40 31 47 57 42 39 35 21 333 14 24 25 18 3 2 354 345 344 347 349 351 350 348 346
232 256 221 157 108 108 100 84 56 33 84 56 60 56 49 52 52 48 44 13 24 45 47 45 44 40 25 28 19 6 13 14 8 1 356 358 346 346 355 355 351 348 347 345 343
227 236 316 6 87 87 87 62 18 63 67 72 72 59 39 18 38 32 54 38 17 30 42 35 38 25 18 26 19 17 16 12 359 353 346 348 349 350 359 356 353 350 345 343 342
236 268 329 310 31 77 77 31 39 63 61 58 64 49 35 32 40 40 35 39 30 14 33 26 33 25 16 16 18 13 11 12 359 355 349 353 356 359 356 352 349 345 343 343 343
296 353 5 352 30 65 54 44 43 46 50 51 46 50 30 20 34 36 31 28 33 11 21 24 24 27 18 17 17 16 14 3 1 352 347 350 348 341 346 345 345 344 344 344 343
307 19 333 24 46 37 38 44 51 40 46 39 47 45 32 23 29 33 30 28 22 19 13 19 24 20 18 13 11 11 7 7 1 355 349 345 346 353 349 348 346 347 346 346 345
326 10 333 24 18 37 40 58 56 43 31 36 41 45 34 25 24 30 30 25 14 17 20 19 18 9 11 13 16 14 9 4 357 353 347 341 341 2 354 350 349 349 350 349 350
317 346 349 19 16 34 54 48 41 35 25 33 41 37 40 24 23 26 27 19 10 13 18 16 14 7 11 14 11 6 3 0 359 359 350 347 348 353 350 348 350 351 351 351 352
310 342 338 358 26 54 51 38 25 31 23 24 33 34 36 22 18 24 23 24 15 17 21 19 17 11 4 3 2 355 355 1 359 354 352 348 344 346 347 349 350 351 352 353 355
297 321 338 358 12 44 43 43 24 13 25 22 25 33 30 22 18 20 22 19 18 17 15 15 9 10 5 359 358 359 359 4 3 2 355 350 347 350 351 350 351 353 355 357 354
291 322 330 357 25 32 26 28 24 20 23 23 28 32 25 19 17 20 18 17 16 14 10 15 7 7 3 13 4 2 13 8 5 2 355 352 351 355 352 353 354 356 357 356 354
292 313 342 331 2 6 13 27 28 32 20 26 37 26 18 21 20 20 17 13 12 10 8 10 7 3 2 2 4 3 6 7 5 1 357 353 353 353 351 353 354 357 358 355 355